Location: Fort Worth, Tx
(32.7431°N, 97.3695°W)
Time: 09:43:46
(UTC-04:00)

A-11 Canister half - Pass Details

Date: 21 August 2024
Orbit: 1524 x 1684 km, 47.3° (Epoch: 13 September)

Event Time Altitude Azimuth Distance (km) Brightness Sun altitude
Rises 04:08:55 0° 305° (NW) 4,938 11.7 -39.8°
Reaches altitude 10° 04:12:14 10° 310° (NW) 3,950 11.2 -39.4°
Maximum altitude 04:22:11 55° 27° (NNE) 1,954 9.6 -38.3°
Drops below altitude 10° 04:31:56 10° 104° (ESE) 3,882 11.3 -37.0°
Sets 04:35:08 0° 108° (ESE) 4,848 11.8 -36.6°
